This is the latest recevied weather packets stored in our database for station/object KBTL-WX. If no packets are shown the sender has not sent any weather packets the latest 10 day(s).
| Time | Temp. | Humidity | Pressure | Rain* | Wind** | Luminosity | Snow |
|---|---|---|---|---|---|---|---|
| 1777381236 | 10.56° C | 88% | 975 hPa | 0 mm | - | - | - |
| 1777380312 | 10.56° C | 90% | 974.4 hPa | 0 mm | - | - | - |
| 1777379431 | 11.11° C | 90% | 974.4 hPa | 0 mm | - | - | - |
| 1777378512 | 11.11° C | 90% | 974.4 hPa | 0 mm | - | - | - |
| 1777377640 | 11.67° C | 90% | 974.4 hPa | 0 mm | - | - | - |
| 1777376712 | 12.22° C | 92% | 973.4 hPa | 0.25 mm | - | - | - |
| 1777375833 | 12.78° C | 92% | 973.7 hPa | 0.25 mm | - | - | - |
| 1777374917 | 13.33° C | 92% | 973.8 hPa | 0.25 mm | - | - | - |
| 1777374040 | 13.89° C | 92% | 973.8 hPa | 0.25 mm | - | - | - |
| 1777373118 | 14.44° C | 90% | 973.6 hPa | 0 mm | - | - | - |
| 1777372232 | 14.44° C | 90% | 973.2 hPa | 0 mm | - | - | - |
| 1777371317 | 14.44° C | 90% | 973.2 hPa | 0 mm | - | - | - |
| 1777370439 | 15° C | 90% | 973.2 hPa | 0 mm | - | - | - |
| 1777369517 | 15° C | 88% | 972.2 hPa | 0 mm | - | - | - |
| 1777368626 | 14.44° C | 88% | 972.2 hPa | 0 mm | - | - | - |
| 1777367718 | 14.44° C | 88% | 972.2 hPa | 0 mm | - | - | - |
| 1777366832 | 14.44° C | 88% | 972.2 hPa | 0 mm | - | - | - |
| 1777365916 | 14.44° C | 89% | 971.2 hPa | 0 mm | - | - | - |
| 1777365032 | 15° C | 91% | 970.9 hPa | 0 mm | - | - | - |
| 1777364113 | 14.44° C | 91% | 971 hPa | 0.25 mm | - | - | - |
| 1777363236 | 14.44° C | 91% | 971 hPa | 0.25 mm | - | - | - |
| 1777362317 | 14.44° C | 88% | 971.2 hPa | 0 mm | - | - | - |
| 1777361431 | 14.44° C | 88% | 971.2 hPa | 0 mm | - | - | - |
| 1777360517 | 15° C | 88% | 971.2 hPa | 0 mm | - | - | - |
| 1777359638 | 15° C | 88% | 971.2 hPa | 0 mm | - | - | - |
* Rain latest hour (hover to see other rain measurements)
** Current wind speed in m/s (hover to see current wind gust speed)